Location: Karcze
(52.0945°N, 22.4786°E)
Time: 23:54:23
(UTC+00:00)

Transit 4A - Pass Details

Date: 06 August 2021
Orbit: 871 x 974 km, 66.8° (Epoch: 18 September)

Event Time Altitude Azimuth Distance (km) Brightness Sun altitude
Exits shadow 21:46:28 25° 217° (SW) 1,696 8.9 -20.6°
Maximum altitude 21:50:02 90° 129° (SE) 880 7.7 -20.7°
Drops below altitude 10° 21:55:53 10° 39° (NE) 2,529 10.7 -20.9°
Sets 21:58:22 0° 40° (NE) 3,473 11.5 -21.0°
